[[{"header":{"parameterUnit":"m.s-1","parameterCategory":1,"la1":30.2991,"la2":30.254,"lo1":-89.0895,"lo2":-89.0444,"dy":0.0017,"dx":0.0017,"nx":28,"ny":28,"refTime":"2025-06-16T21:00:00:Z","depth":0,"parameterNumber":2,"parameterNumberName":"U-component_of_WINDS"},"data":[0,0,0,0,0,0,0,0,0,0,0,0,0,0,0,0,0,0,0,0,0,0,0,0,0,0,0,0,0,0,0,0,0,0,0,0,0,0,0,0,0,0,0,0,0,0,0,0,0,0,0,0,0,0,0,0,0,0,0.8379,0.838,0,0.8434,0.8435,0.8435,0.8439,0.8438,0.8437,0.8437,0.8494,0.8496,0.8498,0,0,0,0,0,0,0,0,0,0,0,0,0,0.8279,0.8281,0.8379,0.838,0.8381,0.8434,0.8435,0.8435,0.8439,0.8438,0.8437,0.8437,0.8494,0.8496,0.8499,0,0,0,0,0,0,0,0,0,0,0,0,0,0.8327,0.8282,0.8379,0.8389,0.839,0.8434,0.8435,0.8436,0.8439,0.8438,0.8437,0.8436,0.8493,0.8496,0.8499,0.8537,0,0,0.8509,0.851,0,0,0,0,0,0,0,0,0.8324,0.8331,0.8387,0.8388,0.839,0.8429,0.842,0.847,0.8439,0.8421,0.8437,0.8436,0.8473,0.8478,0.849,0.854,0.8542,0.8509,0.8511,0.8512,0.8513,0,0,0,0,0,0,0,0.8321,0.8328,0.8401,0.8388,0.8389,0.8391,0.8396,0.843,0.8451,0.8422,0.8422,0.8429,0.8474,0.8487,0.8492,0.8543,0.8509,0.8511,0.8513,0.8515,0.8625,0.8626,0,0,0,0,0,0,0.8316,0.8326,0.8399,0.8403,0.8354,0.8393,0.84,0.8417,0.8451,0.8455,0.843,0.8429,0.8482,0.8488,0.8494,0.8539,0.8512,0.8515,0.8517,0.8624,0.8625,0.8627,0,0,0,0,0,0,0.8314,0.8322,0.8397,0.8364,0.8374,0.8396,0.8415,0.8419,0.8432,0.8457,0.8461,0.8439,0.8482,0.8489,0.8526,0.8541,0.8516,0.8519,0.8623,0.8625,0.8626,0.8632,0,0,0,0,0,0,0.8311,0.8321,0.8336,0.8365,0.8376,0.8428,0.8416,0.842,0.8437,0.8437,0.8467,0.8471,0.8482,0.8521,0.8529,0.8545,0.8522,0.8622,0.8624,0.8626,0.863,0.8633,0.8636,0,0,0,0,0,0.8307,0.8336,0.8337,0.8345,0.8394,0.8429,0.8435,0.8447,0.8438,0.8453,0.8469,0.847,0.8539,0.8525,0.8534,0.8551,0.8621,0.8623,0.8625,0.8629,0.8633,0.8636,0,0,0,0,0,0,0.8309,0.834,0.8341,0.838,0.8402,0.8429,0.8448,0.845,0.8475,0.8474,0.8488,0.8494,0.853,0.8545,0.8529,0.8589,0.8579,0.8583,0.8578,0.8582,0.8585,0.858,0.8524,0,0,0,0,0,0.8314,0.8339,0.8365,0.8397,0.8408,0.8426,0.8442,0.8448,0.8472,0.8481,0.85,0.8523,0.855,0.8567,0.8593,0.8633,0.8639,0.8649,0.8652,0.8654,0.8657,0.8678,0.8683,0.8634,0.8634,0.8634,0,0,0.8324,0.8344,0.8359,0.8398,0.8415,0.8441,0.8434,0.8462,0.8481,0.8486,0.8521,0.8535,0.8562,0.86,0.8618,0.8613,0.8672,0.8657,0.8659,0.8661,0.8681,0.8686,0.869,0.8636,0.8636,0.8635,0,0,0.8356,0.8374,0.8402,0.842,0.8446,0.8458,0.8465,0.8493,0.8502,0.8538,0.8541,0.8565,0.8611,0.8629,0.8645,0.8683,0.8685,0.8692,0.8706,0.8727,0.873,0.8734,0.8747,0.8751,0.8695,0.8695,0.8695,0,0.8366,0.8404,0.8416,0.8444,0.846,0.8465,0.8493,0.851,0.8544,0.8555,0.855,0.8607,0.8625,0.8667,0.8676,0.8689,0.8697,0.8688,0.8729,0.8732,0.8736,0.8748,0.8753,0.8696,0.8696,0.8695,0.8695,0,0.8414,0.8441,0.8461,0.8492,0.8511,0.8539,0.8555,0.8573,0.8578,0.8591,0.8627,0.8649,0.8679,0.869,0.8696,0.8732,0.8729,0.8726,0.8715,0.8741,0.8752,0.8757,0.8696,0.8696,0.8696,0.8696,0,0,0.8448,0.8486,0.8493,0.8507,0.8536,0.8558,0.8586,0.8615,0.8629,0.8653,0.8676,0.8715,0.8712,0.873,0.8738,0.8756,0.8784,0.8751,0.8752,0.8755,0.8825,0.8825,0.8831,0.8785,0.8786,0.8787,0.8822,0,0.8482,0.8531,0.8543,0.8585,0.8609,0.8615,0.8639,0.866,0.8673,0.8696,0.871,0.8737,0.8732,0.8742,0.8761,0.8777,0.8798,0.8774,0.8807,0.8808,0.8799,0.8837,0.8838,0.887,0.8827,0.8828,0.8828,0,0.8528,0.8552,0.8596,0.8622,0.8633,0.8654,0.8681,0.8704,0.8728,0.8736,0.8755,0.8761,0.8791,0.8779,0.882,0.8804,0.8818,0.8828,0.883,0.8832,0.8819,0.884,0.8881,0.8885,0.8836,0.8835,0.8835,0,0.8547,0.859,0.8622,0.8634,0.8665,0.868,0.8694,0.8717,0.8733,0.8758,0.8768,0.8796,0.8811,0.8832,0.8845,0.8836,0.8885,0.8875,0.8892,0.8891,0.8901,0.89,0.8943,0.8912,0.8912,0.8912,0.8912,0,0.8583,0.861,0.863,0.865,0.868,0.8693,0.8722,0.8736,0.8757,0.8779,0.8786,0.8807,0.8824,0.8848,0.8859,0.889,0.8897,0.8905,0.8907,0.8903,0.8902,0.8912,0.891,0.8913,0.8913,0.8913,0.8912,0,0.8608,0.8623,0.8658,0.8685,0.8692,0.8713,0.8736,0.8755,0.8768,0.8796,0.8804,0.8824,0.8852,0.8868,0.8904,0.8911,0.8946,0.8948,0.8937,0.8938,0.8953,0.8951,0.9004,0.9011,0.8976,0.8976,0.8977,0,0.8629,0.865,0.8678,0.8694,0.8707,0.8732,0.8749,0.8762,0.878,0.8808,0.8824,0.8852,0.8875,0.892,0.8938,0.8965,0.8967,0.8984,0.8971,0.8966,0.8966,0.8964,0.8966,0.8985,0.8986,0.8986,0.8986,0,0.8665,0.8671,0.8695,0.8721,0.874,0.8761,0.8783,0.8795,0.8812,0.8831,0.8859,0.8877,0.8913,0.8941,0.8969,0.8984,0.8988,0.899,0.8995,0.8991,0.8983,0.8987,0.8941,0.8989,0.8988,0.8988,0.8988,0.8988,0.8688,0.8706,0.8729,0.8755,0.8772,0.8791,0.881,0.8826,0.8849,0.8879,0.8886,0.8915,0.8939,0.8977,0.8993,0.9016,0.9013,0.9021,0.9023,0.9024,0.9024,0.8981,0.9022,0.9022,0.9022,0.9022,0.9022,0,0.8723,0.8738,0.8761,0.879,0.8811,0.8812,0.8836,0.8853,0.8878,0.89,0.8922,0.8954,0.8981,0.9002,0.9029,0.9044,0.9046,0.9051,0.9049,0.9052,0.9026,0.9018,0.9048,0.9048,0.9048,0.9048,0.9048,0.9048,0.8744,0.8774,0.8783,0.8822,0.8837,0.8865,0.8878,0.8896,0.8913,0.8949,0.8971,0.8984,0.9005,0.9034,0.9059,0.9064,0.9074,0.9077,0.9083,0.9057,0.9054,0.9052,0.9044,0.908,0.908,0.9107,0.9108,0.9108]},{"header":{"parameterUnit":"m.s-1","parameterCategory":1,"la1":30.2991,"la2":30.254,"lo1":-89.0895,"lo2":-89.0444,"dy":0.0017,"dx":0.0017,"nx":28,"ny":28,"refTime":"2025-06-16T21:00:00:Z","depth":0,"parameterNumber":3,"parameterNumberName":"V-component_of_WINDS"},"data":[0,0,0,0,0,0,0,0,0,0,0,0,0,0,0,0,0,0,0,0,0,0,0,0,0,0,0,0,0,0,0,0,0,0,0,0,0,0,0,0,0,0,0,0,0,0,0,0,0,0,0,0,0,0,0,0,0,0,4.6155,4.6157,0,4.6383,4.6385,4.6388,4.6386,4.6383,4.638,4.6377,4.6614,4.6622,4.6631,0,0,0,0,0,0,0,0,0,0,0,0,0,4.5719,4.5727,4.6155,4.6157,4.616,4.6382,4.6385,4.6388,4.6387,4.6383,4.6379,4.6376,4.6611,4.6621,4.6632,0,0,0,0,0,0,0,0,0,0,0,0,0,4.5924,4.573,4.6154,4.6186,4.6191,4.6382,4.6385,4.6389,4.6388,4.6383,4.6378,4.6374,4.6607,4.662,4.6634,4.6808,0,0,4.6675,4.6681,0,0,0,0,0,0,0,0,4.5912,4.594,4.6179,4.6184,4.619,4.6351,4.6318,4.653,4.6389,4.6313,4.6377,4.6372,4.653,4.655,4.6603,4.6819,4.6829,4.6677,4.6685,4.6691,4.6695,0,0,0,0,0,0,0,4.5898,4.593,4.6245,4.6182,4.6189,4.6189,4.6214,4.6358,4.6444,4.6319,4.632,4.6347,4.6533,4.6589,4.6608,4.6833,4.6676,4.6688,4.6697,4.6702,4.7202,4.7207,0,0,0,0,0,0,4.5877,4.5918,4.6238,4.6252,4.6037,4.6201,4.6228,4.6304,4.6443,4.6459,4.635,4.6346,4.6568,4.6592,4.6616,4.6829,4.6691,4.6704,4.6711,4.7197,4.7203,4.7209,0,0,0,0,0,0,4.5868,4.5906,4.6228,4.6085,4.6126,4.6213,4.6299,4.6311,4.6368,4.6466,4.6481,4.6393,4.6566,4.6597,4.676,4.6837,4.671,4.6722,4.7191,4.7199,4.7206,4.7256,0,0,0,0,0,0,4.5855,4.5902,4.5969,4.6087,4.6134,4.6368,4.6304,4.6319,4.6391,4.6387,4.651,4.6526,4.6565,4.674,4.6773,4.6854,4.6733,4.7184,4.7194,4.7203,4.7247,4.7264,4.7278,0,0,0,0,0,4.584,4.5975,4.5973,4.6011,4.622,4.6373,4.64,4.6441,4.6397,4.6466,4.6528,4.6522,4.6823,4.6756,4.6794,4.688,4.718,4.7192,4.7203,4.7241,4.7261,4.7278,0,0,0,0,0,0,4.5867,4.5992,4.599,4.6168,4.6259,4.6372,4.646,4.6461,4.6568,4.656,4.6607,4.6635,4.6797,4.6855,4.6778,4.7055,4.6996,4.7016,4.7012,4.7032,4.7046,4.703,4.6744,0,0,0,0,0,4.5893,4.6006,4.6109,4.6256,4.6302,4.6373,4.6441,4.6464,4.6562,4.6601,4.6675,4.6771,4.6886,4.6962,4.7074,4.7255,4.7281,4.7332,4.7347,4.7359,4.7376,4.7475,4.7499,4.7246,4.7246,4.7246,0,0,4.595,4.6032,4.6101,4.6264,4.6337,4.6454,4.6406,4.6531,4.6618,4.662,4.6778,4.6836,4.6945,4.7117,4.7197,4.717,4.7451,4.7374,4.7383,4.7394,4.7489,4.7513,4.7534,4.7254,4.7253,4.7251,0,0,4.6112,4.6185,4.6315,4.6389,4.65,4.6546,4.6577,4.6689,4.6727,4.6885,4.6889,4.6993,4.7192,4.7269,4.7334,4.7522,4.752,4.7557,4.7638,4.7733,4.7753,4.7771,4.7837,4.7861,4.7573,4.7573,4.7573,0,4.6169,4.6343,4.6382,4.6507,4.6578,4.6583,4.6715,4.6785,4.6928,4.6977,4.6945,4.7193,4.7267,4.7456,4.7502,4.7554,4.7591,4.7544,4.7747,4.7765,4.7782,4.7846,4.7871,4.7577,4.7577,4.7576,4.7576,0,4.6407,4.6527,4.6619,4.6754,4.6836,4.6964,4.7022,4.7099,4.7115,4.7163,4.7324,4.7412,4.7542,4.7588,4.7605,4.778,4.776,4.7736,4.7679,4.7809,4.787,4.7895,4.7582,4.7581,4.758,4.7579,0,0,4.6596,4.6748,4.6781,4.6842,4.6963,4.7058,4.7185,4.731,4.7375,4.7473,4.7581,4.7747,4.7726,4.78,4.7825,4.7909,4.8051,4.7876,4.7879,4.7905,4.8248,4.8265,4.8293,4.8049,4.8054,4.8058,4.8239,0,4.677,4.6996,4.7033,4.7231,4.7342,4.7347,4.7458,4.7544,4.7593,4.7694,4.7748,4.7865,4.7828,4.7872,4.7955,4.8016,4.8121,4.8004,4.8151,4.8156,4.8124,4.8325,4.8344,4.851,4.8263,4.8267,4.827,0,4.7006,4.7107,4.7315,4.742,4.7468,4.7567,4.7683,4.778,4.7878,4.7907,4.7988,4.8003,4.8135,4.8069,4.8252,4.8171,4.8233,4.8272,4.8279,4.8296,4.8221,4.8347,4.8564,4.8589,4.8308,4.8305,4.8302,0,4.7122,4.7311,4.7459,4.7511,4.7637,4.7706,4.7761,4.7855,4.7926,4.8028,4.8075,4.8191,4.8255,4.8344,4.839,4.8338,4.8569,4.8507,4.8597,4.8596,4.8647,4.8643,4.8878,4.8685,4.8685,4.8684,4.8684,0,4.7314,4.7442,4.7513,4.7605,4.7747,4.7787,4.7927,4.7981,4.8063,4.8166,4.8177,4.8273,4.8326,4.843,4.8466,4.8611,4.864,4.8667,4.8676,4.8667,4.8664,4.871,4.87,4.8691,4.869,4.8688,4.8687,0,4.7469,4.7522,4.7684,4.7788,4.7818,4.7918,4.8007,4.8096,4.8143,4.8272,4.8304,4.8378,4.85,4.8554,4.8705,4.8729,4.8895,4.8895,4.8862,4.8865,4.8951,4.8942,4.9224,4.9263,4.9044,4.9046,4.9048,0,4.7589,4.7687,4.78,4.7869,4.7926,4.8036,4.8109,4.8152,4.8227,4.8344,4.8419,4.854,4.8641,4.8835,4.8903,4.9018,4.9021,4.9111,4.9038,4.9026,4.9023,4.9016,4.9026,4.9125,4.9127,4.9129,4.9131,0,4.7796,4.7816,4.792,4.8032,4.8118,4.8209,4.8298,4.8354,4.841,4.8494,4.8618,4.8695,4.8848,4.8969,4.9088,4.9145,4.9148,4.9152,4.9179,4.9172,4.9149,4.9163,4.8899,4.9147,4.9145,4.9144,4.9143,4.9142,4.7938,4.8024,4.8116,4.8231,4.8302,4.8384,4.8472,4.8528,4.8632,4.8759,4.8778,4.891,4.9003,4.9163,4.9224,4.9329,4.9306,4.9345,4.9356,4.9365,4.937,4.9131,4.935,4.935,4.935,4.9349,4.9349,0,4.8145,4.8204,4.8308,4.8431,4.8521,4.8513,4.861,4.8686,4.8802,4.8888,4.8985,4.9127,4.9244,4.9319,4.9436,4.9505,4.9509,4.9535,4.9531,4.9544,4.9383,4.9348,4.953,4.953,4.9529,4.9529,4.9529,4.9529,4.8264,4.8409,4.8439,4.8619,4.8678,4.8806,4.8862,4.8938,4.9007,4.9164,4.926,4.9307,4.9389,4.9512,4.9619,4.9638,4.9681,4.9708,4.9726,4.9574,4.9556,4.9538,4.9505,4.9717,4.9717,4.9878,4.988,4.9881]}]]